Regional Weather Roundup
Issued by NWS

Home | Current Version | Previous Version | Graphics & Text | Print | Product List | Glossary On
Versions: 1 2 3 4 5 6 7 8 9 10 11 12 13 14 15 16 17 18 19 20 21 22 23 24 25 26 27 28 29 30 31 32 33 34 35 36 37 38 39 40 41 42 43 44 45 46 47 48 49 50
000
ASUS43 KIND 220359
RWRIN

WEATHER ROUNDUP FOR INDIANA
NATIONAL WEATHER SERVICE INDIANAPOLIS IN
1200 AM EDT FRI MAY 22 2015

NOTE: "FAIR" INDICATES FEW OR NO CLOUDS BELOW 12,000 FEET WITH NO
SIGNIFICANT WEATHER AND/OR OBSTRUCTIONS TO VISIBILITY.

* - STATION DOES NOT REPORT WEATHER SUCH AS PRECIPITATION OR FOG.

+ - STATION NOT QUALITY CONTROLLED BY THE NATIONAL WEATHER SERVICE.
    USE DATA WITH CAUTION...ESPECIALLY DEWPOINT AND RELATIVE
    HUMIDITY OBSERVATIONS.

INZ001>003-010>013-019-020-220500-
NORTHWEST INDIANA

CITY           SKY/WX    TMP DP  RH WIND       PRES   REMARKS

$$

LMZ046-743>745-220500-
SOUTHERN LAKE MICHIGAN

STATION/POSITION TIME  TEMP    WIND        PRES    WAVE
                       AIR SEA DIR/SP/G            HT
                 (UTC) (F)     (DEG/KT/KT) (MB)    (FT)
BURNS HARBOR     0300   60     200/  8/ 11 1017.6S
MICHIGAN CITY    0300   60     190/ 12/ 13   N/A
5NW MICH CITY    0300   55 51  210/  8/ 10   N/A     0

$$

INZ004-005-014>016-021>024-220500-
NORTH CENTRAL INDIANA

CITY           SKY/WX    TMP DP  RH WIND       PRES   REMARKS
GOSHEN         CLEAR     48  37  65 SW9       30.04S
SOUTH BEND     CLEAR     53  36  52 SW9       30.05S

$$

INZ006>009-017-018-025>027-220500-
NORTHEAST INDIANA

CITY           SKY/WX    TMP DP  RH WIND       PRES   REMARKS
ANGOLA *+      CLEAR     48  37  66 CALM      30.03S
FORT WAYNE     CLEAR     50  41  71 W7        30.07R

$$

INZ028-029-035-036-043>045-051>053-220500-
WEST CENTRAL INDIANA

CITY           SKY/WX    TMP DP  RH WIND       PRES   REMARKS
GREENCASTLE +  CLEAR     48  37  66 CALM      30.14S
LAFAYETTE      CLEAR     50  41  71 W3        30.10R
TERRE HAUTE    CLEAR     51  43  74 SW8       30.15S

$$

INZ030>032-037>040-046>048-054>057-064-065-220500-
CENTRAL INDIANA

CITY           SKY/WX    TMP DP  RH WIND       PRES   REMARKS
GREENWOOD *+   CLEAR     52  39  62 W7        30.13S
INDIANAPOLIS   CLEAR     51  41  68 SW9       30.11S
-EAGLE CREEK   CLEAR     53  41  63 SW6       30.11S
KOKOMO *+      CLEAR     50  37  62 SW9       30.09S
MT COMFORT *+  CLEAR     52  32  46 SW9       30.12S
SHELBYVILLE    CLEAR     50  41  71 SW8       30.12R

$$

INZ033-034-041-042-049-050-058-059-220500-
EAST CENTRAL INDIANA

CITY           SKY/WX    TMP DP  RH WIND       PRES   REMARKS
MUNCIE         CLEAR     53  37  54 SW7       30.09S

$$

INZ060-061-067>069-081>083-085>088-220500-
SOUTHWEST INDIANA

CITY           SKY/WX    TMP DP  RH WIND       PRES   REMARKS
EVANSVILLE     CLEAR     49  45  86 W3        30.20S
HUNTINGBURG *+ CLEAR     46  41  81 S3        30.19S

$$

INZ062-063-066-070>080-084-089>092-220500-
SOUTH CENTRAL AND SOUTHEAST INDIANA

CITY           SKY/WX    TMP DP  RH WIND       PRES   REMARKS
BLOOMINGTON    CLEAR     51  43  74 SW8       30.15S
MADISON *+     CLEAR     46  41  81 CALM      30.18S
SEYMOUR +      CLEAR     50  43  76 W8        30.15S

$$




USA.gov is the U.S. government's official web portal to all federal, state and local government web resources and services.